311  
ASUS44 KOHX 091410  
RWROHX  
MIDDLE TENNESSEE HOURLY WEATHER ROUNDUP  
NATIONAL WEATHER SERVICE NASHVILLE TN  
900 AM CDT SUN AUG 09 2020  
 
NOTE: "FAIR" INDICATES FEW OR NO CLOUDS BELOW 12,000 FEET WITH  
NO SIGNIFICANT WEATHER AND/OR S TO VISIBILITY
.  
 
* THESE REPORTS ARE NOT UNDER NWS QUALITY CONTROL AND MAY NOT  
REPORT WEATHER SUCH AS PRECIPITATION AND FOG.
 
 
 
TNZ005>011-023>034-057-059-062>066-078-080-091500   
..NORTHERN MIDDLE TENNESSEE
 
 
 
CITY SKY/WX TMP DP RH WIND PRES REMARKS
 
CLARKSVILLE CLOUDY 75 70 84 CALM 30.16R  
CROSSVILLE SUNNY 77 66 68 SW3 30.24S  
DICKSON PTSUNNY 75 68 78 SW5 30.17R  
GALLATIN SUNNY 75 70 83 CALM 30.19S  
LEBANON SUNNY 77 68 73 CALM 30.15R  
LIVINGSTON SUNNY 79 64 61 SW3 30.19S  
NASHVILLE PTSUNNY 79 67 66 S5 30.17S  
PORTLAND SUNNY 79 70 73 S8 30.16S  
ROCKWOOD SUNNY 77 63 61 CALM 30.22S  
SMYRNA PTSUNNY 79 71 76 SE5 30.18S  
SPARTA SUNNY 79 66 65 S5 30.19S  
SPRINGFIELD MOSUNNY 77 72 83 CALM 30.16R  
WEST NASHVILLE SUNNY 75 70 83 CALM 30.15R  

 
TNZ056-058-060-061-075>077-079-093>097-091500   
..SOUTHERN MIDDLE TENNESSEE
 
 
 
CITY SKY/WX TMP DP RH WIND PRES REMARKS
 
FAYETTEVILLE SUNNY 81 68 65 S5 30.19F  
LAWRENCEBURG SUNNY 82 70 65 S6 30.17S  
LEWISBURG SUNNY 79 70 73 CALM 30.17S  
MCMINNVILLE SUNNY 79 68 69 CALM 30.18F  
MURFREESBORO SUNNY 81 68 65 S3 30.15S  
PULASKI SUNNY 79 72 78 CALM 30.17R  
SHELBYVILLE SUNNY 79 68 69 S3 30.17S  
TULLAHOMA SUNNY 82 68 61 CALM 30.18S  
WINCHESTER SUNNY 82 68 61 CALM 30.18S  

 
 
   
..KEY TO REMARKS
 
 
VSB - VISIBILITY IN MILES  
WCI - WIND CHILL INDEX  
HX - HEAT INDEX  
 
 
 
CLICK HERE TO GO TO PREVIOUS BULLETINS.

The Nexlab TN Page Main Text Page